Regional Weather Roundup
Issued by NWS

Home | Current Version | Previous Version | Text Only | Print | Product List | Glossary Off
Versions: 1 2 3 4 5 6 7 8 9 10 11 12 13 14 15 16 17 18 19 20 21 22 23 24 25 26 27 28 29 30 31 32 33 34 35 36 37 38 39 40 41 42 43 44 45 46 47 48 49 50

000
ASUS45 KSLC 272310
RWRUT

UTAH REGIONAL WEATHER ROUNDUP
NATIONAL WEATHER SERVICE SALT LAKE CITY UT
400 PM MST SAT DEC 27 2014

UTZ001>011-023>025-280000-

NORTHERN UTAH

CITY           SKY/WX    TMP DP  RH WIND       PRES   REMARKS
BRIGHAM CITY   CLOUDY    28  17  64 S9        30.32R WCI  19
HILL AFB       CLOUDY    24  15  67 S7        30.30R WCI  16
LOGAN            N/A     19  11  70 CALM      30.30S
OGDEN          CLOUDY    26  16  65 S8        30.30R WCI  18
PROVO AIRPORT  MOCLDY    25  12  58 CALM      30.33R
SALT LAKE CITY CLOUDY    27  14  58 S8        30.32R WCI  19
VERNAL         PTCLDY    19  11  70 CALM      30.26S
WENDOVER       PTSUNNY   30  10  43 CALM      30.30S
HEBER CITY     CLOUDY    19  10  68 CALM      30.26R
WEST JORDAN    CLEAR     25  18  74 S12       30.32R WCI  14

$$

UTZ012>022-026-027-280000-

SOUTHERN/CENTRAL UTAH

CITY           SKY/WX    TMP DP  RH WIND       PRES   REMARKS
BLANDING       SUNNY     30  10  44 S6        30.30R WCI  24
BRYCE CANYON   SUNNY     24   3  40 N5        30.19S WCI  18
CEDAR CITY     SUNNY     24   8  50 CALM      30.25R
DELTA          PTSUNNY   24  15  71 CALM      30.32R
MILFORD        SUNNY     21  15  78 S3        30.28R
MOAB/CYNLANDS  CLEAR     20  12  71 CALM      30.29S
PRICE          MOCLDY    27   4  37 S7        30.22R WCI  19
ST GEORGE      CLOUDY    43   7  22 SW3       30.34S
KANAB          SUNNY     36   3  25 E3        30.30R

$$

REGIONAL REPORTS     COLORADO/ARIZONA

CITY           SKY/WX    TMP DP  RH WIND       PRES   REMARKS
CRAIG, CO      PTCLDY    14   7  73 CALM      30.22R
GRAND JUNCTION CLEAR     24  12  60 N5        30.29R WCI  18
RIFLE          CLEAR     23   8  52 W9        30.26R WCI  13
MONTROSE       CLEAR     26  10  50 NW3       30.27R
CORTEZ         CLEAR     30   8  39 W8        30.21R WCI  22
PAGE, AZ       SUNNY     37   7  28 N5        30.29R WCI  33
GRAND CANYON   SUNNY     32   7  35 W7        30.22R WCI  26
KINGMAN        SUNNY     44   9  23 N13       30.27S
FLAGSTAFF      SUNNY     28   8  43 E8        30.21R WCI  20

$$

REGIONAL REPORTS    NEVADA/IDAHO/WYOMING

CITY           SKY/WX    TMP DP  RH WIND       PRES   REMARKS
LAS VEGAS, NV  MOSUNNY   48   5  17 CALM      30.31R
ELY            SUNNY     29   9  43 NE3       30.24R
ELKO           SUNNY     28  16  60 W6        30.25S WCI  22
POCATELLO, ID  CLOUDY    27  18  69 S9        30.24S WCI  18
BURLEY         CLOUDY    29  17  61 SW13      30.23S WCI  19
EVANSTON, WY   MOCLDY    15   8  73 W13       30.16R WCI   1
ROCK SPRINGS   CLOUDY    16   8  71 W24       30.12R WCI  -2

$$


USA.gov is the U.S. government's official web portal to all federal, state and local government web resources and services.